Time,TemperatureF,DewpointF,PressureIn,WindDirection,WindDirectionDegrees,WindSpeedMPH,WindSpeedGustMPH,Humidity,HourlyPrecipIn,Conditions,Clouds,dailyrainin,SolarRadiationWatts/m^2,SoftwareType,DateUTC
2013-01-20 00:32:00,59.0,6.0,-100.00,NNW,331,8.0,14.0,12,0.00,,,0.00,0.000000,,2013-01-20 07:32:00,
2013-01-20 01:32:00,61.0,10.0,-100.00,NW,321,8.0,12.0,13,-99.99,,,0.00,0.000000,,2013-01-20 08:32:00,
2013-01-20 02:33:00,59.0,6.0,-100.00,NW,324,8.0,13.0,12,-99.99,,,0.00,0.000000,,2013-01-20 09:33:00,
2013-01-20 03:32:00,58.0,7.0,-100.00,NNW,335,8.0,16.0,13,-99.99,,,0.00,0.000000,,2013-01-20 10:32:00,
2013-01-20 04:33:00,56.0,7.0,-100.00,NNW,331,6.0,13.0,14,-99.99,,,0.00,0.000000,,2013-01-20 11:33:00,
2013-01-20 05:33:00,57.0,8.0,-100.00,NNW,328,6.0,10.0,14,0.00,,,0.00,0.000000,,2013-01-20 12:33:00,
2013-01-20 06:33:00,57.0,7.0,-100.00,NNW,336,8.0,9.0,13,-99.99,,,0.00,0.000000,,2013-01-20 13:33:00,
2013-01-20 07:33:00,55.0,7.0,-100.00,NNW,329,8.0,13.0,14,-99.99,,,0.00,0.000000,,2013-01-20 14:33:00,
2013-01-20 08:33:00,56.0,7.0,-100.00,NW,321,6.0,13.0,14,-99.99,,,0.00,0.000000,,2013-01-20 15:33:00,
2013-01-20 09:33:00,55.0,3.0,-100.00,NNW,336,8.0,11.0,12,-99.99,,,0.00,14.000000,,2013-01-20 16:33:00,
2013-01-20 10:33:00,60.0,3.0,-100.00,NNW,338,9.0,12.0,10,0.00,,,0.00,199.000000,,2013-01-20 17:33:00,
2013-01-20 11:33:00,66.0,6.0,-100.00,North,7,10.0,13.0,9,0.00,,,-99.99,429.000000,,2013-01-20 18:33:00,
2013-01-20 12:33:00,68.0,5.0,-100.00,North,10,10.0,16.0,8,0.00,,,0.00,625.000000,,2013-01-20 19:33:00,
2013-01-20 13:42:00,72.0,7.0,-100.00,NNE,12,9.0,17.0,8,0.00,,,0.00,723.000000,,2013-01-20 20:42:00,
2013-01-20 13:53:00,72.0,7.0,-100.00,NNE,12,9.0,17.0,8,0.00,,,0.00,723.000000,,2013-01-20 20:53:00,
2013-01-20 14:33:00,72.0,7.0,-100.00,NNW,345,11.0,16.0,8,0.00,,,0.00,503.000000,,2013-01-20 21:33:00,
2013-01-20 14:43:00,72.0,7.0,-100.00,NNW,345,11.0,16.0,8,0.00,,,0.00,503.000000,,2013-01-20 21:43:00,
2013-01-20 14:53:00,72.0,7.0,-100.00,NNW,345,11.0,16.0,8,0.00,,,0.00,503.000000,,2013-01-20 21:53:00,
2013-01-20 15:33:00,74.0,6.0,-100.00,North,358,12.0,18.0,7,0.00,,,0.00,549.000000,,2013-01-20 22:33:00,
2013-01-20 16:33:00,75.0,10.0,-100.00,North,0,10.0,18.0,8,0.00,,,0.00,636.000000,,2013-01-20 23:33:00,
2013-01-20 17:33:00,75.0,10.0,-100.00,North,357,10.0,17.0,8,0.00,,,0.00,458.000000,,2013-01-21 00:33:00,
2013-01-20 18:33:00,75.0,12.0,-100.00,NNW,338,5.0,15.0,9,0.00,,,0.00,361.000000,,2013-01-21 01:33:00,
2013-01-20 19:33:00,70.0,22.0,-100.00,WNW,288,6.0,15.0,16,-99.99,,,0.00,87.000000,,2013-01-21 02:33:00,
2013-01-20 19:43:00,70.0,22.0,-100.00,WNW,288,6.0,15.0,16,-99.99,,,0.00,87.000000,,2013-01-21 02:43:00,
2013-01-20 19:53:00,70.0,22.0,-100.00,WNW,288,6.0,15.0,16,-99.99,,,0.00,87.000000,,2013-01-21 02:53:00,
2013-01-20 20:02:00,70.0,22.0,-100.00,WNW,288,6.0,15.0,16,-99.99,,,0.00,87.000000,,2013-01-21 03:02:00,
2013-01-20 20:33:00,64.0,17.0,-100.00,NNW,327,5.0,10.0,16,-99.99,,,0.00,0.000000,,2013-01-21 03:33:00,
2013-01-20 20:43:00,64.0,17.0,-100.00,NNW,327,5.0,10.0,16,-99.99,,,0.00,0.000000,,2013-01-21 03:43:00,
2013-01-20 20:53:00,64.0,17.0,-100.00,NNW,327,5.0,10.0,16,-99.99,,,0.00,0.000000,,2013-01-21 03:53:00,
2013-01-20 21:02:00,64.0,17.0,-100.00,NNW,327,5.0,10.0,16,-99.99,,,0.00,0.000000,,2013-01-21 04:02:00,
2013-01-20 21:33:00,62.0,9.0,-100.00,North,0,0.0,9.0,12,0.00,,,0.00,0.000000,,2013-01-21 04:33:00,
2013-01-20 22:34:00,60.0,18.0,-100.00,NE,56,0.0,7.0,19,0.00,,,0.00,0.000000,,2013-01-21 05:34:00,
2013-01-20 22:42:00,60.0,18.0,-100.00,NE,56,0.0,7.0,19,0.00,,,0.00,0.000000,,2013-01-21 05:42:00,
2013-01-20 22:53:00,60.0,18.0,-100.00,NE,56,0.0,7.0,19,0.00,,,0.00,0.000000,,2013-01-21 05:53:00,
2013-01-20 23:02:00,60.0,18.0,-100.00,NE,56,0.0,7.0,19,0.00,,,0.00,0.000000,,2013-01-21 06:02:00,
2013-01-20 23:33:00,55.0,19.0,-100.00,ENE,71,0.0,4.0,24,0.00,,,0.00,0.000000,,2013-01-21 06:33:00,
2013-01-20 23:43:00,55.0,19.0,-100.00,ENE,71,0.0,4.0,24,0.00,,,0.00,0.000000,,2013-01-21 06:43:00,
2013-01-20 23:53:00,55.0,19.0,-100.00,ENE,71,0.0,4.0,24,0.00,,,0.00,0.000000,,2013-01-21 06:53:00,